Location: Budapest
(47.4979°N, 19.0402°E)
Time: 17:06:26
(UTC+02:00)

Tiangong 1 - Pass Details

Date: 10 October 2017
Orbit: 292 x 319 km, 42.8° (Epoch: 23 October)

Event Time Altitude Azimuth Distance (km) Brightness Sun altitude
Rises 19:17:58 0° 255° (WSW) 2,042 6.2 -13.1°
Reaches altitude 10° 19:20:05 10° 243° (WSW) 1,206 4.5 -13.4°
Maximum altitude 19:22:29 29° 180° (S) 609 2.0 -13.8°
Enters shadow 19:23:17 24° 147° (SSE) 699 2.0 -14.0°
